STARLINK-1903, 46764

Orbit data source: Space-Track

STARLINK-1903, 46764 is a payload satellite owned by SpaceX/Seattle (US) in LEO that was launched on Sat, 24 Oct 2020 UTC via an FALCON 9 launch vehicle from the Air Force Eastern Test Range (AFETR). Payload-class satellites include a variety of spacecraft equipped with specific instruments for various scientific and technological missions. These include communications satellites like Starlink; space stations such as the ISS; scientific satellites like the Hubble; Earth observation satellites from companies like Planet Labs, Umbra, and HawkEye 360; GPS; miniature CubeSats for education and research; and military/defense satellites.

Loading next visibility...
Identifier
46764, 2020-074AB
Orbit
LEO
Last TLE update
10 hours ago
Origin
Manufacturer
SpaceX/Seattle
Mission
Partially operational Commercial Communications
Bus & Motor
STARLINK, Unknown motor
Mass
260 kg wet, ~248 kg dry
Launch date (UTC)
2020-10-24 (5 years ago)
Launch vehicle
FALCON 9
Launch site
Air Force Eastern Test Range (AFETR)
Object type
Payload
Rocket body
Debris
Shape & HBR
Box + 1 Pan, 8.86 m
Radar Cross Section
13.562 m², Large (>1 m²)

Expand to show TLE details & history

TLE from 10 hours ago
0 STARLINK-1903
1 46764U 20074AB  25181.87016675  .00047200  00000-0  66706-3 0  9998
2 46764  53.0291 337.9873 0002014 160.7948 199.3138 15.56094163259214
Epoch: 2025-06-30T20:53Z
TLE epoch observation values (Epoch: 2025-06-30T20:53:02.407Z)
Latitude
-0.00005°
Longitude
105.55346°
Altitude
401.158 km
Speed
7.67 km/s
True Right ascension
22h 31m 56s
True Declination
0° 00' 00"
Sunlit
Object was in full shadow at epoch
Visualization orbit readout
Latitude
50.01961°
Longitude
166.83914°
Altitude
404.645 km
Speed
7.674 km/s
Apparent Right ascension
04h 27m 12s
Apparent Declination
7° 32' 26"
Sunlit
Object is in daylight
Visualization observer readout
Local Sidereal Time
18:04:30
Azimuth
30.976° NE
Elevation
-37.491°
Doppler factor
1
Orbital elements
Apogee altitude
400.619 km
Perigee altitude
397.89 km
Semi-major axis
6,777.392 km
Eccentricity
0.0002
Inclination
53.0291°
RAAN
337.9873°
Arg. of periapsis
160.7948°
True anomaly
Unknown
Mean anomaly
199.3138°
Eccentric anomaly
Unknown
Mean motion
3.89 °/min
Orbital period
92.55 mins
BSTAR
0.00066706
Loading maneuver chart data...
Loading SW <> Apogee altitude chart data...

STARLINK-1903 Visibility forecast

Observer location: undefined°, undefined°

Span
Click to sort rows by Start time (UTC) header in descending order
Start Az.
Max El. time (UTC)
Max El. Az.
Max El.
End time (UTC)
End Az.
4 mins2025-07-01 12:27:42.825Z186.722° SSW2025-07-01 12:29:42.825Z139.999° SSE24.437°2025-07-01 12:31:42.825Z83.955° E
4 mins2025-07-01 14:04:42.825Z285.178° WNW2025-07-01 14:05:42.825Z313.749° NW25.372°2025-07-01 14:08:42.825Z29.781° NE
4 mins2025-07-01 20:32:42.825Z274.511° WNW2025-07-01 20:33:42.825Z244.257° WSW28.227°2025-07-01 20:36:42.825Z162.119° S
|